Dewpoint
68 70 69 70 68 69 68 70 69 69 69 68 69 68 68 65 63 63 63 62 62 64 63 65 68 69 71 72 72 73 73 71 72 71 71 71 70 69 69 69 69 69 69 68 68 69 69 69 69 70 70 70 70 71 71 71 72 72 72 72 72 73 73 73 74 74 74 74 74 75 75 76 76 77
65 68 69 66 65 66 68 68 67 68 69 70 69 68 66 66 64 65 63 61 63 63 67 66 69 73 70 70 73 73 73 72 75 73 71 70 70 67 69 69 69 69 68 68 68 68 68 68 68 68 68 69 69 70 70 70 70 71 71 71 72 72 72 72 73 73 73 74 74 74 74 75 75 75
67 67 64 64 66 67 67 66 65 67 68 69 70 69 68 67 68 66 65 63 64 63 62 65 68 71 70 70 71 72 73 74 73 73 72 73 71 69 72 68 68 68 68 68 67 67 66 67 67 67 67 68 68 69 69 70 70 70 70 70 71 71 71 71 72 72 72 73 73 73 73 73 74 74
63 63 63 65 65 65 67 66 66 66 67 66 68 68 67 67 67 66 66 64 63 66 63 62 64 68 70 72 72 71 72 74 74 74 74 75 73 75 73 70 68 68 67 67 67 66 66 66 67 67 67 67 68 69 68 68 68 69 69 69 70 70 70 70 70 71 71 71 71 71 72 72 72 73
63 62 61 62 63 64 65 65 64 65 66 66 68 69 69 68 69 69 66 66 66 67 66 63 62 64 68 68 69 68 70 74 74 73 75 75 74 75 73 74 70 68 67 66 66 66 66 66 66 66 67 67 68 68 69 68 68 68 67 68 68 68 69 69 69 69 70 70 70 71 71 71 71 72
63 62 63 62 61 63 62 63 64 63 64 65 64 65 67 68 66 67 66 66 65 65 65 65 65 63 64 66 68 69 70 72 73 74 75 76 75 76 75 73 75 69 67 66 65 66 66 66 66 66 66 67 67 67 68 67 67 67 66 67 67 67 66 67 67 68 68 69 70 70 70 70 71 71
60 61 62 61 61 61 62 63 64 64 64 65 64 64 64 65 66 66 68 67 64 63 64 64 63 64 63 64 64 65 67 70 74 73 73 74 73 73 74 75 75 71 67 66 65 66 66 66 66 66 66 66 66 66 66 66 66 66 66 66 66 66 66 66 66 67 67 68 69 70 69 69 70 70
60 61 61 61 61 62 62 62 65 66 65 64 65 64 65 67 67 64 66 67 65 63 61 63 63 63 62 65 66 65 67 69 73 73 73 75 73 73 73 74 74 73 68 66 66 66 66 66 66 65 65 65 64 65 65 65 65 64 64 64 64 64 64 64 65 66 66 66 67 68 69 69 69 68
60 60 59 60 60 62 63 60 64 66 66 65 64 63 64 65 66 66 67 68 69 67 63 62 64 65 64 63 66 65 67 69 71 71 72 72 73 73 73 72 71 72 68 66 66 65 65 66 66 66 65 65 64 64 64 64 64 63 63 63 63 63 63 63 62 63 64 64 65 65 66 67 68 69
59 59 60 59 60 60 62 60 64 63 66 63 65 64 62 63 65 66 65 67 67 67 66 65 63 65 63 65 65 66 68 66 68 69 72 73 73 73 71 71 74 75 77 75 74 68 67 66 66 66 66 65 65 64 63 63 62 62 61 60 60 62 62 62 63 63 62 63 63 64 65 66 67 67
58 58 59 59 59 60 61 63 63 62 65 65 65 65 63 63 65 67 65 66 66 66 66 66 65 63 63 64 65 66 68 70 70 68 70 72 72 71 71 71 72 75 74 73 71 73 71 70 70 66 65 65 65 64 63 62 61 60 60 59 58 59 59 60 61 62 62 62 62 62 62 63 65 66
58 58 59 59 59 61 62 63 63 63 63 66 65 65 64 63 64 64 65 64 65 66 65 65 64 65 64 66 66 66 69 70 70 68 69 69 69 70 72 71 72 75 72 72 73 71 71 70 70 66 65 65 65 64 64 64 63 61 60 59 60 60 59 59 59 60 60 60 59 60 60 60 63 64
58 59 60 59 59 62 59 59 59 60 59 64 65 67 66 65 65 65 63 62 63 64 65 65 64 64 64 64 64 65 68 67 66 68 72 69 70 70 70 72 74 74 73 74 73 73 75 74 73 75 75 74 69 68 66 68 66 63 60 60 61 61 60 58 58 59 59 59 58 58 58 60 61 63
57 57 59 61 60 58 59 58 58 58 58 58 61 65 67 68 67 64 64 65 65 64 61 61 61 61 61 63 64 65 66 67 67 66 69 68 68 69 70 71 73 75 72 71 72 74 75 74 74 73 73 74 75 73 73 72 70 67 63 62 61 61 61 59 58 58 58 58 58 57 57 58 60 61
58 58 59 60 60 60 59 60 58 58 57 57 57 57 59 61 64 66 66 64 64 65 63 62 62 61 63 62 63 63 62 62 64 65 69 68 69 71 70 68 69 74 75 73 69 73 75 74 72 72 72 72 74 73 72 70 68 66 63 63 62 61 61 61 60 59 57 57 57 57 56 57 59 60
58 59 58 59 59 59 59 59 59 58 56 56 56 56 56 57 59 60 65 64 64 66 63 63 63 62 62 63 63 62 59 62 64 65 65 68 69 68 66 68 67 72 74 73 71 71 73 73 70 71 73 72 72 72 70 67 67 65 63 63 63 62 62 61 61 61 59 58 58 59 58 59 59 60
58 59 60 59 59 59 57 59 58 58 58 55 55 54 55 56 56 58 59 60 65 63 64 63 63 64 63 62 63 63 63 64 63 63 65 68 69 68 69 69 68 72 74 74 71 67 70 72 72 69 71 71 72 74 66 66 66 65 65 64 63 62 61 61 61 61 60 59 58 59 59 58 58 59
60 60 60 60 59 59 59 59 58 58 57 57 57 58 60 61 61 57 58 58 59 61 63 64 63 64 64 63 64 64 65 64 64 64 69 70 69 70 69 70 70 72 74 71 69 66 66 71 70 68 70 71 72 73 71 65 65 65 63 63 62 61 61 60 60 60 60 60 59 58 57 57 57 57
62 61 60 61 60 60 60 60 58 57 56 56 56 56 57 58 60 63 64 63 63 64 63 63 64 65 65 64 64 65 64 65 67 68 66 68 69 70 70 70 71 69 73 73 68 64 64 68 68 69 69 69 71 72 66 65 65 64 62 62 62 61 60 60 60 59 59 59 58 57 56 56 55 55
63 62 61 61 60 60 60 57 55 55 56 56 56 56 56 57 58 60 59 61 62 64 64 64 63 62 62 60 64 64 65 70 69 64 68 70 70 70 69 68 68 67 73 71 68 65 64 63 66 68 69 69 70 71 70 63 63 62 61 61 61 60 59 59 59 59 59 59 58 57 55 54 53 53
62 62 62 61 62 61 60 57 55 54 52 56 56 57 57 57 57 59 62 59 58 59 58 58 59 59 58 58 58 58 59 65 66 65 63 64 66 68 67 66 65 66 66 68 67 62 62 64 68 67 67 69 69 69 70 73 62 61 60 60 59 58 58 58 58 58 58 58 58 57 56 53 52 53
63 63 62 62 62 61 61 57 54 54 54 56 56 56 56 56 57 58 60 62 64 57 57 58 59 59 59 59 59 59 59 59 63 67 65 61 61 62 65 65 65 64 64 64 66 65 59 64 68 66 67 69 69 68 70 71 66 59 57 58 58 57 57 57 56 57 57 57 57 56 54 52 53 61
64 63 62 60 59 59 59 54 53 53 52 55 56 57 57 56 56 58 60 62 62 64 63 64 64 64 60 64 66 66 59 61 64 64 63 62 61 60 61 62 64 62 61 64 71 67 65 64 67 67 66 66 69 69 69 70 71 70 69 67 64 56 57 56 55 55 55 56 55 55 52 52 57 68
63 64 63 62 57 55 54 52 51 50 50 53 56 58 57 56 56 57 60 62 63 64 64 64 65 65 64 64 65 66 67 65 66 64 63 63 62 62 62 62 62 61 61 63 70 67 65 64 65 68 65 65 64 67 68 70 70 69 69 69 68 58 57 55 53 52 53 54 53 53 52 52 57 70
62 63 63 63 58 55 53 52 50 48 49 50 57 58 56 56 56 55 58 62 59 64 65 65 65 64 64 63 62 63 67 67 66 64 63 63 63 62 61 60 61 62 61 64 66 69 64 64 65 68 67 66 64 67 68 69 69 68 69 69 69 66 66 67 65 64 51 50 51 51 51 53 53 64
62 64 64 62 60 55 53 51 48 48 49 51 59 58 50 51 54 60 62 63 64 65 66 66 66 66 67 67 65 62 63 65 66 65 63 62 62 63 62 62 63 60 62 72 63 68 70 63 65 65 67 65 63 66 66 67 68 68 69 69 69 68 68 67 67 67 66 65 61 56 58 53 54 55
63 64 64 63 58 53 50 48 47 48 50 53 56 50 51 52 54 58 62 64 65 66 65 65 67 66 65 64 64 65 64 63 64 64 64 64 63 64 64 64 68 70 72 70 70 71 69 65 67 67 66 66 65 65 65 64 66 68 67 68 69 68 68 67 67 66 66 66 64 50 51 51 53 54
64 64 63 62 52 49 46 47 48 50 52 56 51 51 52 54 56 60 60 60 63 64 66 67 67 67 67 67 68 67 67 65 68 67 66 66 65 65 66 68 70 70 70 71 70 70 70 69 66 68 69 67 65 64 63 64 65 66 66 67 67 67 67 67 67 67 66 66 64 63 64 62 62 62
64 60 53 50 49 50 49 50 53 55 55 54 53 53 54 55 60 60 60 59 59 59 59 62 64 65 67 67 67 67 68 68 69 69 67 67 68 69 72 72 71 71 70 69 72 73 73 69 68 69 69 68 64 63 63 66 63 65 65 66 66 67 67 67 67 66 66 65 65 65 65 65 64 64
55 54 52 51 52 54 57 62 61 61 60 56 56 56 57 60 60 60 59 59 58 57 58 59 59 60 62 65 67 68 68 68 67 67 67 67 68 69 70 70 70 69 70 70 70 73 74 72 70 70 70 69 68 68 66 66 68 65 65 65 66 66 66 66 66 66 65 65 65 65 66 66 65 64
58 59 61 60 56 55 55 57 57 58 59 61 60 61 60 60 61 60 60 60 57 59 58 58 59 60 61 61 62 65 66 66 67 68 67 67 68 67 67 67 66 67 68 70 70 70 71 71 71 70 70 69 68 69 68 67 68 64 65 64 64 64 65 66 67 66 66 66 66 66 66 65 64 64
56 56 57 60 63 64 61 62 62 61 61 61 61 61 61 60 61 61 60 60 60 60 60 59 59 59 59 60 61 62 62 62 65 66 68 67 67 67 66 65 65 66 66 67 67 68 68 69 70 71 70 69 67 70 70 69 70 65 65 64 64 65 64 64 65 66 67 67 66 65 66 66 65 64
55 59 53 55 54 55 55 57 57 60 61 61 61 59 61 60 60 60 60 59 59 59 59 59 59 59 59 59 60 60 61 61 63 64 66 66 66 66 67 65 64 64 64 65 66 67 67 67 67 68 68 69 69 69 69 69 68 68 65 64 66 69 64 64 65 65 67 66 65 65 66 66 66 66
55 54 52 52 52 52 53 53 54 55 58 58 59 60 58 60 60 60 59 60 60 59 59 59 58 58 58 58 59 60 59 60 61 61 61 63 63 63 62 61 61 63 63 64 65 65 65 65 66 66 67 67 67 67 68 69 68 67 69 68 68 66 65 64 65 66 66 65 65 64 64 65 65 66
53 52 52 50 51 50 49 50 50 51 53 56 57 57 58 58 57 58 59 60 59 59 59 59 59 58 58 58 58 58 59 59 59 60 60 61 61 61 60 60 60 59 60 60 61 63 65 65 64 63 64 64 63 64 61 64 67 65 67 69 68 67 66 66 65 66 66 66 65 64 63 64 64 65
51 49 49 49 48 48 48 48 49 49 49 51 52 53 54 54 54 54 55 57 60 59 59 59 59 59 59 58 58 58 58 58 59 59 59 59 60 59 59 59 58 60 60 59 60 61 62 63 64 62 61 62 62 61 62 60 61 67 66 66 68 67 67 67 66 66 66 65 65 66 62 62 64 65
48 47 47 46 47 46 46 46 47 47 47 48 48 49 50 51 53 53 52 54 56 57 58 59 59 60 59 59 58 57 58 58 58 59 59 59 59 59 58 59 58 59 59 59 61 60 60 60 61 63 62 61 61 59 60 62 58 57 66 66 65 66 65 66 66 66 66 66 65 65 64 64 63 65
49 47 45 45 45 45 45 44 45 45 46 47 47 47 47 48 51 53 52 53 53 54 55 57 59 59 59 59 59 59 59 59 59 58 58 59 59 59 58 58 58 59 58 59 59 60 60 59 58 59 61 60 59 59 58 61 61 60 53 63 65 65 66 65 64 64 65 66 66 66 65 65 65 66
48 46 45 45 44 43 43 44 44 44 44 45 46 46 46 46 46 49 49 50 50 53 54 55 55 56 57 59 58 59 59 59 58 58 58 59 59 58 58 58 58 59 58 58 59 60 59 59 59 59 59 58 58 58 60 59 59 62 56 50 62 66 66 66 64 66 66 66 65 65 65 66 63 60
44 43 42 42 42 42 42 43 42 43 43 44 44 45 45 45 44 45 46 47 49 50 51 53 55 54 55 56 57 59 59 59 59 59 58 58 59 59 58 58 58 59 59 59 59 59 58 57 58 59 59 59 60 61 62 60 60 62 62 56 48 58 64 66 65 65 64 66 65 64 64 65 64 64
43 41 41 41 41 40 40 40 39 40 41 42 43 44 45 46 44 44 45 46 49 48 48 49 51 53 55 56 56 57 57 58 58 59 59 59 58 58 57 57 58 59 58 58 58 58 59 60 59 58 60 61 62 63 63 60 58 58 59 60 53 49 50 55 65 64 63 65 64 62 59 61 61 62
41 42 40 40 39 38 38 38 38 38 38 39 40 41 43 44 44 43 45 46 47 49 49 50 49 50 51 52 55 56 56 57 59 59 59 59 59 58 58 58 58 58 59 58 59 59 61 62 62 61 62 62 62 59 57 58 58 59 59 61 63 55 52 51 51 54 62 64 63 63 61 59 57 58
40 39 38 38 38 38 37 37 37 37 36 37 38 40 39 39 40 40 41 42 43 45 47 48 49 49 49 50 51 52 53 55 58 59 60 59 59 59 59 60 60 59 59 60 61 61 62 61 61 63 61 61 60 62 58 57 59 59 59 60 60 64 64 55 50 50 51 51 53 58 61 59 53 51
38 38 38 38 37 38 37 37 36 35 36 36 36 37 37 37 38 38 38 39 40 41 43 47 48 49 49 49 50 50 52 52 54 56 57 59 58 59 59 60 60 58 59 58 60 60 60 61 62 60 60 59 59 58 58 59 59 60 60 59 60 62 62 61 59 56 55 53 51 51 52 52 51 52
38 38 38 36 36 37 37 37 36 36 35 34 33 34 35 35 36 36 37 38 39 40 42 43 45 46 47 50 50 49 50 49 51 53 53 55 57 59 58 57 59 59 59 60 57 57 59 59 60 60 58 59 60 60 61 60 59 59 59 59 59 61 60 61 60 57 57 55 51 50 50 52 52 51